(209885) = 1999 FF94 = 2005 JF185

Discovered at Mount Lemmon on 2005-05-14 by Mt. Lemmon Survey.

Orbit

Orbit type: Main Belt

Note: WebGL enabled browser required.

epoch2023-09-13.0
epoch JD2460200.5
perihelion date2021-12-26.12413
perihelion JD2459574.62412
argument of perihelion (°)121.46589
ascending node (°)86.32206
inclination (°)6.56631
eccentricity0.1178652
perihelion distance (AU)2.8006157
Tisserand w.r.t. Jupiter3.2
ΔV w.r.t. Earth (km/sec)10.6
semimajor axis (AU)3.1748161
mean anomaly (°)109.04712
mean daily motion (°/day)0.17423120
aphelion distance (AU)3.549
period (years)5.66
P-vector [x]-0.87909533
P-vector [y]-0.46685822
P-vector [z]-0.09609784
Q-vector [x]0.46278353
Q-vector [y]-0.78773179
Q-vector [z]-0.40658335
absolute magnitude15.6
phase slope0.15
uncertainty0
referenceMPO 778446
observations used497
oppositions15
arc length (days)8973
first opposition used1999
last opposition used2023
residual rms (arc-secs)0.69
perturbers coarse indicatorM-v
perturbers precise indicator003Ek
first observation date used1999-03-21.0
last observation date used2023-10-14.0
computer nameMPCLINUX
JD of orbit computation2456966.837484
perihelion JD uncertainty (days)2.1035E-04
argument of perihelion uncertainty (°)5.9379E-05
ascending node uncertainty (°)4.9832E-05
inclination uncertainty (°)4.6317E-06
eccentricity uncertainty 6.5834E-08
perihelion distance uncertainty (AU)2.1154E-07
Minimum Orbit Intersection Distances (in AU)
for orbit epoch: 2460200.5, reference: E2023-UR4
Mercury2.36208
Venus2.07978
Earth1.80159
Mars1.19239
Jupiter1.44419
Saturn5.62953
Uranus15.5205
Neptune26.298

Observations

510 total observations over interval: 1999 03 21.36555 – 2023 10 14.269329
These data are available for download (format description).

Date (UT) J2000 RA J2000 Dec Magn Location Ref
1999 03 21.36555 13 39 20.873 -00 12 30.01 19.71 V 645 – Apache Point-Sloan Digital Sky Survey MPS 121089
1999 03 21.365550 13 39 20.872 -00 12 30.02 19.72 V 645 – Apache Point-Sloan Digital Sky Survey MPS 121089
1999 03 21.369022 13 39 20.753 -00 12 29.10 20.46   645 – Apache Point-Sloan Digital Sky Survey MPS 121089
1999 03 22.362490 13 38 47.359 -00 08 13.73 19.69 V 645 – Apache Point-Sloan Digital Sky Survey MPS 121089
1999 03 22.365962 13 38 47.233 -00 08 12.86 20.31   645 – Apache Point-Sloan Digital Sky Survey MPS 121089
2003 12 29.47409 09 45 09.56 +19 49 20.7 21.1 V 291 – LPL/Spacewatch II MPS 253541
2003 12 29.50867 09 45 09.10 +19 49 28.8 20.8 V 291 – LPL/Spacewatch II MPS 253541
2003 12 29.54138 09 45 08.74 +19 49 36.5 20.8 V 291 – LPL/Spacewatch II MPS 253541
2004 01 30.29463 09 28 24.99 +22 33 18.2 19.7 C 704 – Lincoln Laboratory ETS, New Mexico MPS 294350
2004 01 30.30739 09 28 24.37 +22 33 22.4 19.2 C 704 – Lincoln Laboratory ETS, New Mexico MPS 294350
2004 01 30.31980 09 28 23.74 +22 33 26.6 19.4 C 704 – Lincoln Laboratory ETS, New Mexico MPS 294350
2004 01 30.33224 09 28 23.08 +22 33 30.8 19.8 C 704 – Lincoln Laboratory ETS, New Mexico MPS 294350
2004 03 17.289860 08 56 51.008 +25 01 45.81 20.43 V 645 – Apache Point-Sloan Digital Sky Survey MPS 253541
2004 03 17.293332 08 56 50.943 +25 01 45.78 21.02   645 – Apache Point-Sloan Digital Sky Survey MPS 253541
2005 05 14.38656 15 47 49.10 -14 41 49.1 18.7 R G96 – Mt. Lemmon Survey MPS 253541
2005 05 14.39450 15 47 48.70 -14 41 48.7 18.0 R G96 – Mt. Lemmon Survey MPS 253541
2005 05 14.40245 15 47 48.30 -14 41 49.5 17.7 R G96 – Mt. Lemmon Survey MPS 253541
2005 05 14.41042 15 47 47.87 -14 41 47.8 17.9 R G96 – Mt. Lemmon Survey MPS 253541
2005 05 14.43786 15 47 46.50 -14 41 46.5 19.1   644 – Palomar Mountain/NEAT MPS 253541
2005 05 14.44773 15 47 46.03 -14 41 45.8 19.0   644 – Palomar Mountain/NEAT MPS 253541
2005 05 14.45827 15 47 45.48 -14 41 45.5 19.6   644 – Palomar Mountain/NEAT MPS 253541
2005 06 03.21953 15 31 56.69 -14 34 41.6 20.4 V 691 – Steward Observatory, Kitt Peak-Spacewatch MPS 253541
2005 06 03.23688 15 31 55.91 -14 34 42.5 20.3 V 691 – Steward Observatory, Kitt Peak-Spacewatch MPS 253541
2005 06 03.25426 15 31 55.13 -14 34 42.5 20.3 V 691 – Steward Observatory, Kitt Peak-Spacewatch MPS 253541
2005 06 03.29358 15 31 53.25 -14 34 43.5 19.2 V 703 – Catalina Sky Survey MPS 253541
2005 06 03.30124 15 31 52.93 -14 34 44.3 19.4 V 703 – Catalina Sky Survey MPS 253541
2005 06 03.30891 15 31 52.64 -14 34 43.1 19.5 V 703 – Catalina Sky Survey MPS 253541
2005 06 03.31655 15 31 52.32 -14 34 42.2 19.4 V 703 – Catalina Sky Survey MPS 253541
2005 06 16.24979 15 23 58.45 -14 42 58.9 20.4 V G96 – Mt. Lemmon Survey MPS 253541
2005 06 16.25503 15 23 58.27 -14 42 59.5 20.0 V G96 – Mt. Lemmon Survey MPS 253541
2005 06 16.26035 15 23 58.16 -14 42 59.7 20.3 V G96 – Mt. Lemmon Survey MPS 253541
2005 06 16.26567 15 23 57.94 -14 43 00.1 20.6 V G96 – Mt. Lemmon Survey MPS 253541
2005 06 27.19078 15 19 57.77 -15 00 13.9 20.4   644 – Palomar Mountain/NEAT MPS 253541
2005 06 27.21221 15 19 57.41 -15 00 16.3 20.3   644 – Palomar Mountain/NEAT MPS 253541
2005 06 27.23402 15 19 57.07 -15 00 19.0 20.1   644 – Palomar Mountain/NEAT MPS 253541
2008 11 30.34792 06 02 18.14 +23 04 18.1 20.9 V 691 – Steward Observatory, Kitt Peak-Spacewatch MPS 267536
2008 11 30.36555 06 02 17.33 +23 04 19.7 20.9 V 691 – Steward Observatory, Kitt Peak-Spacewatch MPS 267536
2008 11 30.38064 06 02 16.64 +23 04 21.1 20.9 V 691 – Steward Observatory, Kitt Peak-Spacewatch MPS 267536
2008 12 04.32244 05 59 15.61 +23 10 02.6 20.6 V 691 – Steward Observatory, Kitt Peak-Spacewatch MPS 267536
2008 12 04.33838 05 59 14.81 +23 10 04.2 20.5 V 691 – Steward Observatory, Kitt Peak-Spacewatch MPS 267536
2008 12 04.35434 05 59 14.08 +23 10 05.4 20.6 V 691 – Steward Observatory, Kitt Peak-Spacewatch MPS 267536
2009 02 27.16248 05 20 06.93 +24 37 27.7 20.8 V G96 – Mt. Lemmon Survey MPS 278658
2009 02 27.16730 05 20 07.04 +24 37 28.3 20.2 V G96 – Mt. Lemmon Survey MPS 278658
2009 02 27.17221 05 20 07.15 +24 37 28.4 19.9 V G96 – Mt. Lemmon Survey MPS 278658
2009 02 27.17705 05 20 07.29 +24 37 29.2 20.1 V G96 – Mt. Lemmon Survey MPS 278658
2009 11 21.49604 11 13 18.53 +10 57 37.7   691 – Steward Observatory, Kitt Peak-Spacewatch MPS 306524
2009 11 21.50867 11 13 19.34 +10 57 34.5   691 – Steward Observatory, Kitt Peak-Spacewatch MPS 306524
2009 11 21.52130 11 13 20.14 +10 57 30.8   691 – Steward Observatory, Kitt Peak-Spacewatch MPS 306524
2010 03 05.31753 11 36 44.24 +13 18 42.3 20.0 V 703 – Catalina Sky Survey MPS 317759
2010 03 05.32334 11 36 43.95 +13 18 42.9 19.5 V 703 – Catalina Sky Survey MPS 317759
2010 03 05.32913 11 36 43.66 +13 18 46.1 20.4 V 703 – Catalina Sky Survey MPS 317759
2010 03 05.33485 11 36 43.41 +13 18 47.6 19.6 V 703 – Catalina Sky Survey MPS 317759
2010 03 11.70741 11 31 55.87 +13 53 15.9 19.7 R D29 – Purple Mountain Observatory, XuYi Station MPS 317759
2010 03 11.72429 11 31 55.09 +13 53 20.6 19.5 R D29 – Purple Mountain Observatory, XuYi Station MPS 317759
2010 03 11.74017 11 31 54.25 +13 53 26.8 19.1 R D29 – Purple Mountain Observatory, XuYi Station MPS 317759
2010 03 11.75652 11 31 53.58 +13 53 32.0 18.7 R D29 – Purple Mountain Observatory, XuYi Station MPS 317759
2010 03 12.30263 11 31 28.59 +13 56 19.5 19.4 V 703 – Catalina Sky Survey MPS 317759
2010 03 12.31024 11 31 28.23 +13 56 20.9 19.5 V 703 – Catalina Sky Survey MPS 317759
2010 03 12.31790 11 31 27.84 +13 56 22.9 19.9 V 703 – Catalina Sky Survey MPS 317759
2010 03 12.32554 11 31 27.44 +13 56 25.4 19.1 V 703 – Catalina Sky Survey MPS 317759
2010 03 13.28767 11 30 43.20 +14 01 13.8 19.5 V 703 – Catalina Sky Survey MPS 319171
2010 03 13.29417 11 30 43.05 +14 01 17.4 19.6 V 703 – Catalina Sky Survey MPS 319171
2010 03 13.30068 11 30 42.66 +14 01 19.7 19.5 V 703 – Catalina Sky Survey MPS 319171
2010 03 13.30719 11 30 42.44 +14 01 20.5 19.3 V 703 – Catalina Sky Survey MPS 319171
2010 03 16.28434 11 28 25.93 +14 15 37.8 19.4 V 703 – Catalina Sky Survey MPS 319171
2010 03 16.29186 11 28 25.42 +14 15 40.0 19.2 V 703 – Catalina Sky Survey MPS 319171
2010 03 16.29926 11 28 25.17 +14 15 42.0 19.5 V 703 – Catalina Sky Survey MPS 319171
2010 03 16.30675 11 28 24.74 +14 15 43.9 19.5 V 703 – Catalina Sky Survey MPS 319171
2010 03 17.27462 11 27 40.63 +14 20 07.8 19.5   704 – Lincoln Laboratory ETS, New Mexico MPS 320544
2010 03 17.28568 11 27 40.04 +14 20 10.3 19.8   704 – Lincoln Laboratory ETS, New Mexico MPS 320544
2010 03 17.29674 11 27 39.70 +14 20 14.9 19.5   704 – Lincoln Laboratory ETS, New Mexico MPS 320544
2010 03 17.31891 11 27 38.57 +14 20 20.3 19.5   704 – Lincoln Laboratory ETS, New Mexico MPS 320544
2010 06 01.080297 11 18 24.862 +12 17 21.48   C51 – WISE MPS 903507
2010 06 01.344905 11 18 34.92 +12 15 31.2   C51 – WISE MPS 331820
2010 06 01.477208 11 18 40.01 +12 14 39.2   C51 – WISE MPS 331820
2010 06 01.609513 11 18 45.154 +12 13 45.88   C51 – WISE MPS 903507
2010 06 01.675601 11 18 47.58 +12 13 17.2   C51 – WISE MPS 331820
2010 06 01.741816 11 18 50.12 +12 12 51.1   C51 – WISE MPS 331820
2010 06 01.807904 11 18 52.75 +12 12 24.8   C51 – WISE MPS 331820
2010 06 01.874120 11 18 55.33 +12 11 58.3   C51 – WISE MPS 331820
2010 06 01.940208 11 18 57.78 +12 11 30.6   C51 – WISE MPS 331820
2010 06 02.072513 11 19 02.97 +12 10 37.0   C51 – WISE MPS 331820
2010 06 02.204816 11 19 08.19 +12 09 42.5   C51 – WISE MPS 331820
2010 06 02.337119 11 19 13.34 +12 08 48.4   C51 – WISE MPS 331820
2012 12 31.21953 23 25 14.202 -10 23 38.45 21.8 w F51 – Pan-STARRS 1, Haleakala MPS 449476
2012 12 31.22350 23 25 14.402 -10 23 36.87 21.6 w F51 – Pan-STARRS 1, Haleakala MPS 449476
2012 12 31.22746 23 25 14.572 -10 23 35.51 21.9 w F51 – Pan-STARRS 1, Haleakala MPS 449476
2012 12 31.23141 23 25 14.783 -10 23 33.74 21.3 w F51 – Pan-STARRS 1, Haleakala MPS 449476
2013 10 23.40233 03 15 37.39 +11 49 06.3 20.9 V 691 – Steward Observatory, Kitt Peak-Spacewatch MPS 483309
2013 10 23.42005 03 15 36.64 +11 49 04.1 20.6 V 691 – Steward Observatory, Kitt Peak-Spacewatch MPS 483309
